Aeroporto :
LOGIN :

Iscrizione | Disclaimer

   EN    FR    IT 

 










Sommario :    VFR   VFR Marginale   IFR   IFR Intensivo   IFR Molto Intensivo
Visibilità : 
Base nubi : 
>= 8 km
>= 3000ft
5 / 8 km
1000 / 3000 ft
1500m / 5 km
500 / 1000 ft
800 / 1500m
200 / 500 ft
< 800m
< 200 ft
Simboli :   Temporali  Nebbia  Neve Forte  Precipitazioni Forti  Vento > 20 kt
SIGMETs :   Varie  Temporali  Ghiacco  Turbolenza  Onda orograficha  Ceneri Vulcaniche






- Altitudine del aeroporto : 137 ft
- Codice IATA : THN


ESGT - Trollhattan-Vanersborg

ULTIMO METAR :
  • 012020Z AUTO 26017KT 9999 FEW015/// 06/03 Q1000

METARs OBSOLETI :
  • 011950Z AUTO 24015KT 9999 NCD 06/03 Q1001
  • 011920Z AUTO 23014KT 9999 NCD 06/03 Q1001
  • 011850Z AUTO 23010KT 9999 FEW064/// 05/02 Q1001
  • 011820Z AUTO 24012KT 9999 NCD 06/02 Q1002
  • 011750Z AUTO 24014KT 9999 FEW200/// 06/02 Q1002
  • 011720Z AUTO 25013KT 9999 FEW200/// 07/02 Q1002

Previsioni scadute.



MetMap, La meteo Aeronautica in un colpo d'occhio ! - Copyright ORBIFLY Dicembre 2007 - Disclaimer

ORBIFLY MET'MAP TEAM :

Programmazione e sviluppo : Alexandra Zaïnal
Concezione : Baudouin d'Aumeries
Aiuto per la programmazione : Marc-Olivier Méhu
Supporto tecnico e logistico : Manuel Goepfert
Aiuto per la traduzione : Arnaldo La Scala

Contatto : metmap@orbifly.com




FONTI E CREDITI :

   NOAA